User: anonymous   Login
Location: Biltmore Gardens
(41.6070°N, 83.4666°W)
Time: 06:26:14
(UTC+00:00)
Language:

Courier 1B - Orbit

View from above orbital plane
View from above orbital plane
View from above satellite
View from above satellite

Ground track
Ground track

The orbit data is extracted from the following two-line orbital elements,

1 00058U 60013A   21109.36715543  .00000101  00000-0  26750-4 0  9996
2 00058  28.3286 342.6479 0164947  81.9835 279.9391 13.46326061979876
Epoch (UTC): 19 April 2021 08:48:42
Eccentricity: 0.0164947
inclination: 28.3286°
perigee height: 962 km
apogee height: 1209 km
right ascension of ascending node: 342.6479°
argument of perigee: 81.9835°
revolutions per day: 13.46326061
mean anomaly at epoch: 279.9391°
orbit number at epoch: 97987

The dashed part of the orbit path shows where the satellite is in the earth's shadow,  

DLR